Regional Weather Roundup
Issued by NWS Kansas City/Pleasant Hill, MO

Home | Current Version | Previous Version | Graphics & Text | Print | Product List | Glossary Off
Versions: 1 2 3 4 5 6 7 8 9 10 11 12 13 14 15 16 17 18 19 20 21 22 23 24 25 26 27 28 29 30 31 32 33 34 35 36 37 38 39 40 41 42 43 44 45 46 47 48 49 50

000
ASUS43 KEAX 270010
RWREAX

WEATHER ROUNDUP FOR EASTERN KANSAS AND NORTHWEST MISSOURI
NATIONAL WEATHER SERVICE KANSAS CITY/PLEASANT HILL MO
600 PM CST FRI DEC 26 2014

KSZ040-057-103>105-MOZ028-029-037-043-270100-
...KANSAS CITY METROPOLITAN AREA...

CITY           SKY/WX    TMP DP  RH WIND       PRES   REMARKS
K.C. INTL      CLOUDY    39  34  82 NE8       29.93S WCI  33
6HR MIN TEMP:  39; 6HR MAX TEMP:  48;

K.C. DOWNTOWN  CLOUDY    43  35  73 N5        29.94R
6HR MIN TEMP:  43; 6HR MAX TEMP:  55;

LEES SUMMIT    CLOUDY    46  38  73 NW6       29.93R
6HR MIN TEMP:  46; 6HR MAX TEMP:  55;

OLATHE - IXD   CLOUDY    40  35  83 N7        29.93S
6HR MIN TEMP:  40; 6HR MAX TEMP:  53;

OLATHE - OJC   CLOUDY    43  36  76 N7        29.92R
6HR MIN TEMP:  43; 6HR MAX TEMP:  54;

LAWRENCE       CLOUDY    39  33  79 N7        29.96R WCI  34

$$

MOZ001>008-011>017-020>025-030>033-038>040-044>046-053-054-270100-
...NORTHERN AND CENTRAL MISSOURI...

CITY           SKY/WX    TMP DP  RH WIND       PRES   REMARKS
ST. JOSEPH     CLOUDY    37  33  85 N6        29.97R WCI  32
6HR MIN TEMP:  35; 6HR MAX TEMP:  39;

MOSBY          CLOUDY    43  36  75 N8        29.94F
WARRENSBURG    CLOUDY    52  45  76 S3        29.92R
WHITEMAN AFB   CLOUDY    54  46  72 S8        29.92R
6HR MIN TEMP:  54; 6HR MAX TEMP:  59;

CLINTON        MOCLDY    55  46  71 S12       29.94R
SEDALIA        CLOUDY    56  45  66 S10       29.94R
6HR MIN TEMP:  55; 6HR MAX TEMP:  59;

WARSAW         NOT AVBL
MARSHALL       CLOUDY    57  48  72 S6        29.93
CHILLICOTHE      N/A     49  43  80 CALM      29.95R
6HR MIN TEMP:  49; 6HR MAX TEMP:  54;

KIRKSVILLE     CLOUDY    48  43  82 CALM      29.94R
6HR MIN TEMP:  48; 6HR MAX TEMP:  54;


$$

MOZ041-047>049-056>058-063>065-088>090-097-270100-
...EASTERN AND SOUTHERN MISSOURI...

CITY           SKY/WX    TMP DP  RH WIND       PRES   REMARKS
ST. LOUIS INTL MOCLDY    56  44  64 S13       30.02R
6HR MIN TEMP:  56; 6HR MAX TEMP:  62;

SPIRIT OF STL  CLOUDY    56  44  64 S9        30.00R
COLUMBIA       CLOUDY    54  45  71 S10       29.96R
JEFFERSON CITY CLOUDY    56  45  66 SE8       29.96S
MEXICO         CLOUDY    54  48  82 S9        29.95
HANNIBAL       MOCLDY    54  41  62 SE6       29.95F
ROLLA          CLOUDY    51  44  77 S14       29.98R
LEBANON        CLOUDY    50  45  81 S14       29.98R
OSAGE BEACH    CLOUDY    54  45  71 S9G21     29.97R
SPRINGFIELD    CLOUDY    50  47  89 S16       29.95R
BRANSON        CLOUDY    48  46  93 SE14      29.99S
NEVADA         CLOUDY    52  48  87 S12       29.94R
JOPLIN         LGT RAIN  52  51  97 S6        29.94R FOG
WEST PLAINS    CLOUDY    49  38  65 SE9       30.04S

$$

IAZ060-094-KSZ022-034>040-054-083-096-NEZ052-066-093-270100-
...KANSAS...SOUTHEAST NEBRASKA AND IOWA...

CITY           SKY/WX    TMP DP  RH WIND       PRES   REMARKS
TOPEKA         CLOUDY    39  34  82 NW7       29.99R WCI  34
6HR MIN TEMP:  38; 6HR MAX TEMP:  43;

MANHATTAN      CLOUDY    34  33  96 N7        29.98R WCI  28
EMPORIA        CLOUDY    38  33  82 NW9       29.96R WCI  31
CHANUTE        CLOUDY    47  39  74 N5        29.93R
WICHITA        CLOUDY    36  31  82 N12       29.97R WCI  28
OMAHA          CLOUDY    33  30  88 N13       30.02R WCI  24
LINCOLN        CLOUDY    31  28  89 N13       30.04R WCI  21
FALLS CITY     CLOUDY    35  32  88 N6        29.96S WCI  30
LAMONI         CLOUDY    35  32  88 N8        29.95R WCI  29
DES MOINES     CLOUDY    35  31  85 N8        29.98F WCI  29

$$



USA.gov is the U.S. government's official web portal to all federal, state and local government web resources and services.